Weather in Zasheyek

Russia / Republic of Karelia     66°15′10″N   31°06′29″E
temp.,
°C
wind,
m/s
gust,
m/s
humid.,
%
clouds,
%
prec.,
mm/h
press.,
hPa
HPBL,
m
28 february, sun
sun2800:00−6s2388100 0.0 100930
03:00−5ssw2291100 0.0 100852
06:00−6wsw129698 0.1 100728
09:00−8wnw129489 0.1 100921
12:00−3wsw129118 0.0 100986
15:000w35899 0.0 1010225
18:00−1wsw238731 0.0 100931
21:000w3108965 0.0 1008266
1 march, mon
mon100:000wsw339399 0.0 100642
03:00+2wsw5139099 0.0 1004460
06:00+2w61682100 0.0 1002627
09:000wnw5158290 0.0 1002425
12:00+2wnw6137531 0.0 1000574
15:00+2w6127616 0.0 999586
18:00−1w6148233 0.0 998442
21:00−2w6177633 0.0 996624
2 march, tue
tue200:000wnw91980100 0.0 9951162
03:00−3nw9197486 0.0 999771
06:00−5nw7167984 0.0 1002526
09:00−6nw5118679 0.0 1006299
12:00−2nw6137477 0.0 1008648
15:00−1nw6127643 0.0 1009829
18:00−4nw512800 0.0 1010317
21:00−6nw36897 0.0 1012106
3 march, wed
wed300:00−5nw5108966 0.1 1013203
03:00−8wnw338832 0.1 101426
06:00−7wnw368764 0.0 101292
09:00−7w358982 0.0 101195
12:00−4wsw3684100 0.0 1009218
15:00−3ssw3686100 0.0 1003214
18:00−2ssw5997100 1.6 997503
21:00−1wnw7158399 1.9 992693
4 march, thu
thu400:00−4wnw5128736 0.0 991522
03:00−6n7139458 1.3 992830
06:00−6n81576100 1.6 9961078
09:00−10nnw6148581 1.6 999443
12:00−8nnw6128113 0.0 1001589
15:00−6nnw7128054 0.1 1001998
18:00−7nw71580100 0.0 1001901
21:00−8nnw71780100 0.0 1002711